Date String (YYYY-MM-DD hh:mm:ss) UTC,Instrument flags,absolute air pressure of the measurement (hPa),sample flow rate (lpm),inlet stack bypass flow (lpm),air temperature of the measurement (°C),ambient temperature measured by the external sensor (°C),aerosol sample conditioner tube jacket temperature (°C),OPC LED temperature (°C),internal box temperature (°C),relative humidity of the measurement (%),span deviation,mass concentration of particles derived from Lorenz-Mie calculation of OPC scattering (μg/m³),mass concentration of particles derived from Lorenz-Mie calculation of OPC scattering (μg/m³),mass concentration of particles derived from Lorenz-Mie calculation of OPC scattering (μg/m³)
DateTimeUTC,F1_M11,P_M11,Q1_M11,Q2_M11,T1_M11,T2_M11,T3_M11,T4_M11,T5_M11,U1_M11,ZSPAN_M11,X2_M11,X0_M11,X1_M11
2023-10-31 04:00:00,SystemResetWarning,0837.1,5.01,000.00,022.8,021.4,000.0,031.3,024.1,7.2,0000.0,0003.83,0005.42,0003.61
2023-10-31 04:01:00,SystemResetWarning,0837.2,5.01,000.00,022.8,021.3,000.0,031.3,024.1,7.3,0000.0,0003.80,0005.37,0003.59
2023-10-31 04:02:00,SystemResetWarning,0837.2,4.99,000.00,022.7,021.3,000.0,031.3,024.0,7.5,0000.0,0003.80,0005.43,0003.57
2023-10-31 04:03:00,SystemResetWarning,0837.2,5.00,000.00,022.7,021.3,000.0,031.3,024.0,7.5,0000.0,0003.79,0005.45,0003.56
2023-10-31 04:04:00,SystemResetWarning,0837.2,4.99,000.00,022.7,021.3,000.0,031.2,024.0,7.5,0000.0,0003.77,0005.38,0003.55
2023-10-31 04:05:00,SystemResetWarning,0837.2,5.00,000.00,022.7,021.2,000.0,031.2,023.9,7.5,0000.0,0003.78,0005.37,0003.56
2023-10-31 04:06:00,SystemResetWarning,0837.2,5.00,000.00,022.6,021.2,000.0,031.2,023.9,7.5,0000.0,0003.75,0005.27,0003.54
2023-10-31 04:07:00,SystemResetWarning,0837.2,4.99,000.00,022.6,021.2,000.0,031.2,023.9,7.6,0000.0,0003.71,0005.12,0003.52
2023-10-31 04:08:00,SystemResetWarning,0837.2,5.00,000.00,022.6,021.2,000.0,031.2,023.9,7.6,0000.0,0003.70,0005.16,0003.51
2023-10-31 04:09:00,SystemResetWarning,0837.2,5.01,000.00,022.6,021.2,000.0,031.1,023.9,7.6,0000.0,0003.68,0005.12,0003.50
2023-10-31 04:10:00,SystemResetWarning,0837.2,5.01,000.00,022.6,021.1,000.0,031.1,023.9,7.8,0000.0,0003.66,0005.07,0003.48
2023-10-31 04:11:00,SystemResetWarning,0837.2,5.01,000.00,022.6,021.1,000.0,031.1,023.8,8.0,0000.0,0003.68,0005.15,0003.47
2023-10-31 04:12:00,SystemResetWarning,0837.2,5.00,000.00,022.5,021.1,000.0,031.1,023.8,8.0,0000.0,0003.70,0005.24,0003.48
2023-10-31 04:13:00,SystemResetWarning,0837.2,5.00,000.00,022.5,021.1,000.0,031.1,023.8,8.0,0000.0,0003.70,0005.22,0003.49
2023-10-31 04:14:00,SystemResetWarning,0837.2,5.00,000.00,022.5,021.1,000.0,031.1,023.8,7.9,0000.0,0003.72,0005.32,0003.49
2023-10-31 04:15:00,SystemResetWarning,0837.2,5.00,000.00,022.5,021.0,000.0,031.0,023.8,7.8,0000.0,0003.72,0005.35,0003.48
2023-10-31 04:16:00,SystemResetWarning,0837.2,5.00,000.00,022.5,021.0,000.0,031.0,023.8,7.9,0000.0,0003.72,0005.37,0003.47
2023-10-31 04:17:00,SystemResetWarning,0837.2,5.00,000.00,022.4,021.0,000.0,031.0,023.7,8.0,0000.0,0003.74,0005.46,0003.47
2023-10-31 04:18:00,SystemResetWarning,0837.2,4.99,000.00,022.4,020.9,000.0,031.0,023.7,8.2,0000.0,0003.75,0005.63,0003.47
2023-10-31 04:19:00,SystemResetWarning,0837.2,5.00,000.00,022.4,021.0,000.0,031.0,023.6,8.3,0000.0,0003.74,0005.55,0003.47
2023-10-31 04:20:00,SystemResetWarning,0837.2,5.00,000.00,022.4,020.9,000.0,031.0,023.6,8.3,0000.0,0003.73,0005.54,0003.46
2023-10-31 04:21:00,SystemResetWarning,0837.2,5.00,000.00,022.4,020.9,000.0,030.9,023.6,8.5,0000.0,0003.74,0005.56,0003.47
2023-10-31 04:22:00,SystemResetWarning,0837.2,5.00,000.00,022.3,020.9,000.0,030.9,023.6,8.6,0000.0,0003.72,0005.44,0003.48
2023-10-31 04:23:00,SystemResetWarning,0837.2,5.00,000.00,022.3,020.9,000.0,030.9,023.6,8.6,0000.0,0003.70,0005.27,0003.48
2023-10-31 04:24:00,SystemResetWarning,0837.2,5.01,000.00,022.3,020.8,000.0,030.9,023.6,8.7,0000.0,0003.67,0005.25,0003.47
2023-10-31 04:25:00,SystemResetWarning,0837.2,5.01,000.00,022.3,020.8,000.0,030.9,023.5,8.6,0000.0,0003.63,0007.30,0003.45
2023-10-31 04:26:00,SystemResetWarning,0837.2,5.01,000.00,022.3,020.8,000.0,030.9,023.5,8.6,0000.0,0003.63,0008.12,0003.44
2023-10-31 04:27:00,SystemResetWarning,0837.3,5.00,000.00,022.2,020.8,000.0,030.8,023.5,8.5,0000.0,0003.65,0008.19,0003.43
2023-10-31 04:28:00,SystemResetWarning,0837.3,4.99,000.00,022.2,020.8,000.0,030.8,023.5,8.9,0000.0,0003.62,0008.17,0003.41
2023-10-31 04:29:00,SystemResetWarning,0837.2,5.00,000.00,022.2,020.8,000.0,030.8,023.4,9.0,0000.0,0003.61,0008.13,0003.40
2023-10-31 04:30:00,SystemResetWarning,0837.4,5.00,000.00,022.2,020.8,000.0,030.8,023.4,8.9,0000.0,0003.62,0008.14,0003.40
2023-10-31 04:31:00,SystemResetWarning,0837.2,5.00,000.00,022.2,020.8,000.0,030.8,023.4,9.1,0000.0,0003.62,0008.14,0003.38
2023-10-31 04:32:00,SystemResetWarning,0837.3,5.00,000.00,022.1,020.7,000.0,030.7,023.4,9.0,0000.0,0003.61,0008.16,0003.37
2023-10-31 04:33:00,SystemResetWarning,0837.2,5.00,000.00,022.1,020.8,000.0,030.7,023.3,8.8,0000.0,0003.60,0008.14,0003.35
2023-10-31 04:34:00,SystemResetWarning,0837.3,5.00,000.00,022.1,020.7,000.0,030.7,023.4,8.8,0000.0,0003.59,0008.14,0003.34
2023-10-31 04:35:00,SystemResetWarning,0837.3,5.00,000.00,022.1,020.7,000.0,030.7,023.4,8.9,0000.0,0003.56,0008.55,0003.33
2023-10-31 04:36:00,SystemResetWarning,0837.3,5.00,000.00,022.1,020.7,000.0,030.7,023.4,9.0,0000.0,0003.56,0007.59,0003.32
2023-10-31 04:37:00,SystemResetWarning,0837.3,5.00,000.00,022.1,020.7,000.0,030.6,023.3,8.9,0000.0,0003.57,0006.20,0003.32
2023-10-31 04:38:00,SystemResetWarning,0837.4,4.99,000.00,022.1,020.7,000.0,030.6,023.3,8.9,0000.0,0003.55,0006.08,0003.31
2023-10-31 04:39:00,SystemResetWarning,0837.4,4.99,000.00,022.0,020.7,000.0,030.6,023.3,8.8,0000.0,0003.57,0006.21,0003.32
2023-10-31 04:40:00,SystemResetWarning,0837.4,5.01,000.00,022.0,020.7,000.0,030.6,023.3,8.8,0000.0,0003.55,0006.15,0003.31
2023-10-31 04:41:00,SystemResetWarning,0837.4,5.00,000.00,022.0,020.7,000.0,030.6,023.2,9.0,0000.0,0003.55,0006.16,0003.31
2023-10-31 04:42:00,SystemResetWarning,0837.5,5.01,000.00,022.0,020.6,000.0,030.6,023.2,8.9,0000.0,0003.53,0006.08,0003.30
2023-10-31 04:43:00,SystemResetWarning,0837.4,5.00,000.00,022.0,020.6,000.0,030.6,023.2,8.8,0000.0,0003.53,0006.06,0003.30
2023-10-31 04:44:00,SystemResetWarning,0837.5,4.99,000.00,021.9,020.6,000.0,030.5,023.2,8.8,0000.0,0003.54,0006.12,0003.31
2023-10-31 04:45:00,SystemResetWarning,0837.4,4.99,000.00,021.9,020.6,000.0,030.5,023.2,8.9,0000.0,0003.56,0006.21,0003.31
2023-10-31 04:46:00,SystemResetWarning,0837.4,5.00,000.00,021.9,020.6,000.0,030.5,023.1,9.0,0000.0,0003.56,0005.74,0003.30
2023-10-31 04:47:00,SystemResetWarning,0837.5,5.00,000.00,021.9,020.6,000.0,030.5,023.1,9.0,0000.0,0003.57,0005.13,0003.30
2023-10-31 04:48:00,SystemResetWarning,0837.5,5.01,000.00,021.9,020.6,000.0,030.5,023.2,9.0,0000.0,0003.57,0005.05,0003.30
2023-10-31 04:49:00,SystemResetWarning,0837.5,5.00,000.00,021.9,020.6,000.0,030.4,023.2,8.8,0000.0,0003.55,0004.92,0003.31
2023-10-31 04:50:00,SystemResetWarning,0837.5,5.00,000.00,021.9,020.6,000.0,030.4,023.2,8.8,0000.0,0003.55,0004.92,0003.31
2023-10-31 04:51:00,SystemResetWarning,0837.5,4.99,000.00,021.9,020.5,000.0,030.4,023.2,8.7,0000.0,0003.57,0005.08,0003.32
2023-10-31 04:52:00,SystemResetWarning,0837.5,4.99,000.00,021.9,020.5,000.0,030.4,023.1,8.7,0000.0,0003.58,0005.11,0003.32
2023-10-31 04:53:00,SystemResetWarning,0837.5,5.00,000.00,021.8,020.5,000.0,030.4,023.1,8.9,0000.0,0003.58,0005.18,0003.32
2023-10-31 04:54:00,SystemResetWarning,0837.6,5.01,000.00,021.8,020.5,000.0,030.4,023.1,8.9,0000.0,0003.59,0005.22,0003.32
2023-10-31 04:55:00,SystemResetWarning,0837.6,5.00,000.00,021.8,020.5,000.0,030.4,023.1,8.9,0000.0,0003.57,0005.17,0003.31
2023-10-31 04:56:00,SystemResetWarning,0837.5,5.01,000.00,021.8,020.5,000.0,030.3,023.1,8.9,0000.0,0003.56,0005.12,0003.31
2023-10-31 04:57:00,SystemResetWarning,0837.6,4.99,000.00,021.8,020.5,000.0,030.3,023.1,8.9,0000.0,0003.53,0004.99,0003.30
2023-10-31 04:58:00,SystemResetWarning,0837.6,4.98,000.00,021.8,020.5,000.0,030.3,023.1,9.0,0000.0,0003.50,0004.89,0003.27
2023-10-31 04:59:00,SystemResetWarning,0837.6,5.00,000.00,021.8,020.5,000.0,030.3,023.1,8.9,0000.0,0003.49,0004.92,0003.26
